Grand Island, NE

7:35 AM CST on November 23, 2017 (GMT -0600)
Central Nebraska Regional

Weather History for KGRI - June, 2014

Change the Weather History Date:

Monday, June 9, 2014

  Actual Average Record
Temperature  
Mean Temperature 62 °F 69 °F  
Max Temperature 67 °F 81 °F 104 °F (1911)
Min Temperature 57 °F 58 °F 44 °F (1912)
Degree Days  
Heating Degree Days 3 1  
Month to date heating degree days 10 14  
Since 1 June heating degree days 10 14  
Since 1 July heating degree days 6266 6189  
Cooling Degree Days 0 5  
Month to date cooling degree days 52 41  
Year to date cooling degree days 171 106  
Since 1 June cooling degree days 52 41  
Growing Degree Days 12 (Base 50)    
Moisture  
Dew Point 57 °F    
Average Humidity 83    
Maximum Humidity 93    
Minimum Humidity 73    
Precipitation  
Precipitation 0.00 in 0.15 in 1.93 in (1919)
Month to date precipitation 3.39 1.39  
Year to date precipitation 7.88 11.34  
Snow  
Snow 0.00 in 0.00 in - ()
Month to date snowfall 0.0 0.0  
Since 1 June snowfall 0.0 0.0  
Since 1 July snowfall 16.4 29.0  
Snow Depth 0.00 in    
Sea Level Pressure  
Sea Level Pressure 29.92 in    
Wind  
Wind Speed 13 mph (NNE)    
Max Wind Speed 23 mph    
Max Gust Speed 27 mph    
Visibility 10 miles    
Events      
T = Trace of Precipitation, MM = Missing Value Source: NWS Daily Summary

Daily Weather History Graph

Daily Weather History Graph

Search for Another Location

Airport or City:

Trip Planner

Search our weather history database for the weather conditions in past years. The results will help you decide how hot, cold, wet, or windy it might be!

Date:

Astronomy

Jun. 09, 2014 Rise Set
Actual Time 6:01 AM CDT 9:04 PM CDT
Civil Twilight 5:27 AM CDT 9:37 PM CDT
Nautical Twilight 4:45 AM CDT 10:20 PM CDT
Astronomical Twilight 3:55 AM CDT 11:10 PM CDT
Moon 5:25 PM CDT (6/9) 3:30 AM CDT (6/9)
Length of Visible Light 16h 09m
Length of Day
15h 03m
Waxing Gibbous, 85% of the Moon is Illuminated
Jun 9
Waxing Gibbous
Jun 12
Full
Jun 19
Last Quarter
Jun 27
New
Jul 5
First Quarter

Hourly Weather History & Observations

Time (CDT) Temp. Dew Point Humidity Pressure Visibility Wind Dir Wind Speed Gust Speed Precip Events Conditions
12:53 AM 64.0 °F 60.1 °F 87% 29.88 in 10.0 mi SE 12.7 mph - N/A   Mostly Cloudy
1:53 AM 64.0 °F 60.1 °F 87% 29.85 in 10.0 mi ESE 15.0 mph - N/A   Mostly Cloudy
2:12 AM 63.0 °F 60.1 °F 90% 29.88 in 10.0 mi SE 13.8 mph 21.9 mph N/A   Mostly Cloudy
2:53 AM 63.0 °F 60.1 °F 90% 29.85 in 10.0 mi SE 12.7 mph 21.9 mph N/A   Overcast
3:19 AM 63.0 °F 60.1 °F 90% 29.88 in 10.0 mi SE 12.7 mph - N/A   Overcast
3:31 AM 63.0 °F 60.1 °F 90% 29.88 in 10.0 mi SE 12.7 mph - N/A   Overcast
3:53 AM 63.0 °F 59.0 °F 87% 29.84 in 10.0 mi SE 10.4 mph - N/A   Overcast
4:39 AM 63.0 °F 59.0 °F 87% 29.87 in 10.0 mi SSE 12.7 mph - N/A   Mostly Cloudy
4:53 AM 63.0 °F 59.0 °F 87% 29.85 in 10.0 mi SSE 12.7 mph - N/A   Mostly Cloudy
5:43 AM 62.1 °F 59.0 °F 90% 29.88 in 10.0 mi SE 9.2 mph - N/A   Overcast
5:51 AM 62.6 °F 59.0 °F 88% 29.88 in 10.0 mi SSE 10.4 mph - N/A   Mostly Cloudy
5:53 AM 62.1 °F 59.0 °F 90% 29.86 in 10.0 mi SE 6.9 mph - N/A   Mostly Cloudy
6:02 AM 62.1 °F 57.9 °F 86% 29.88 in 10.0 mi SSE 9.2 mph - N/A   Overcast
6:53 AM 62.1 °F 57.9 °F 86% 29.88 in 10.0 mi SSE 6.9 mph - N/A   Mostly Cloudy
7:53 AM 63.0 °F 59.0 °F 87% 29.90 in 10.0 mi NNE 6.9 mph - N/A   Overcast
8:41 AM 57.9 °F 53.1 °F 84% 29.94 in 10.0 mi NNE 21.9 mph - N/A   Overcast
8:53 AM 57.0 °F 53.1 °F 87% 29.92 in 10.0 mi NNE 18.4 mph 26.5 mph N/A   Overcast
9:23 AM 57.0 °F 53.1 °F 87% 29.95 in 10.0 mi NNE 16.1 mph 25.3 mph N/A   Overcast
9:53 AM 57.2 °F 53.6 °F 88% 29.95 in 10.0 mi NNE 16.1 mph - N/A   Overcast
10:07 AM 57.0 °F 53.1 °F 87% 29.95 in 10.0 mi NNE 17.3 mph - N/A   Overcast
10:19 AM 57.9 °F 53.1 °F 84% 29.96 in 10.0 mi NNE 12.7 mph - N/A   Overcast
10:53 AM 57.9 °F 53.1 °F 84% 29.95 in 10.0 mi NE 18.4 mph - N/A   Overcast
11:53 AM 59.0 °F 54.0 °F 83% 29.94 in 10.0 mi NNE 13.8 mph - N/A   Scattered Clouds
12:53 PM 62.1 °F 55.0 °F 78% 29.92 in 10.0 mi NNE 15.0 mph - N/A   Scattered Clouds
1:53 PM 64.0 °F 55.9 °F 75% 29.92 in 10.0 mi NNE 11.5 mph - N/A   Mostly Cloudy
2:53 PM 64.4 °F 57.2 °F 77% 29.93 in 10.0 mi North 16.1 mph - N/A   Overcast
3:24 PM 63.0 °F 55.9 °F 78% 29.94 in 10.0 mi North 17.3 mph - N/A   Overcast
3:45 PM 64.0 °F 55.9 °F 75% 29.94 in 10.0 mi North 17.3 mph - N/A   Overcast
3:53 PM 64.0 °F 57.0 °F 78% 29.92 in 10.0 mi North 19.6 mph - N/A   Mostly Cloudy
4:53 PM 64.0 °F 57.0 °F 78% 29.91 in 10.0 mi North 17.3 mph 24.2 mph N/A   Overcast
5:44 PM 64.9 °F 57.9 °F 78% 29.94 in 10.0 mi North 17.3 mph - N/A   Mostly Cloudy
5:53 PM 66.0 °F 57.9 °F 75% 29.91 in 10.0 mi North 16.1 mph - N/A   Mostly Cloudy
6:21 PM 66.0 °F 57.0 °F 73% 29.94 in 10.0 mi North 16.1 mph - N/A   Mostly Cloudy
6:28 PM 66.0 °F 57.0 °F 73% 29.93 in 10.0 mi North 15.0 mph - N/A   Mostly Cloudy
6:53 PM 64.9 °F 57.0 °F 75% 29.91 in 10.0 mi North 16.1 mph - N/A   Overcast
7:53 PM 63.0 °F 57.0 °F 81% 29.93 in 10.0 mi North 16.1 mph - N/A   Overcast
8:43 PM 61.0 °F 57.0 °F 87% 29.95 in 10.0 mi North 12.7 mph - N/A   Mostly Cloudy
8:53 PM 61.0 °F 57.0 °F 87% 29.95 in 9.0 mi North 12.7 mph - N/A   Mostly Cloudy
9:07 PM 61.0 °F 57.0 °F 87% 29.96 in 9.0 mi North 10.4 mph - N/A   Partly Cloudy
9:53 PM 60.1 °F 55.9 °F 86% 29.96 in 8.0 mi North 10.4 mph - N/A   Clear
10:12 PM 60.1 °F 57.0 °F 90% 29.98 in 8.0 mi North 10.4 mph - N/A   Mostly Cloudy
10:31 PM 60.1 °F 57.0 °F 90% 29.98 in 9.0 mi North 10.4 mph - N/A   Mostly Cloudy
10:41 PM 60.1 °F 57.0 °F 90% 29.98 in 8.0 mi North 10.4 mph - N/A   Mostly Cloudy
10:53 PM 60.1 °F 57.0 °F 90% 29.97 in 8.0 mi North 11.5 mph - N/A   Overcast
11:53 PM 60.1 °F 57.0 °F 90% 29.96 in 8.0 mi North 9.2 mph - N/A   Mostly Cloudy